www.pogodaiklimat.ru

Погода и климат >> Архив погоды >> Австралия >> Западная Австралия >> Ньюдегейт


ПОГОДА в Ньюдегейте

  • Прогноз погоды в Ньюдегейте
  • Монитор погоды в Ньюдегейте

АРХИВ ПОГОДЫ в Ньюдегейте

Время (UTC), дата Ветер
(напр.,м/с)
 
Видим.   Явления Облачность Т
(С)
Тd
(С)
f
(%)
Тe
(С)
Тes
(С)
Комфортность P
(гПа)
Po
(гПа)
Тmin
(С)
Tmax
(С)
R
(мм)
R24
(мм)
S
(см)
01 20.06 СВ 2 н/о н/о +6.6 +1.3 69 +5 +5 1024.5 986.0 -3.1
03 20.06 СВ 5 н/о н/о +11.9 -0.3 43 +10 +10 1023.4 985.0
04 20.06 СВ 5 н/о н/о +13.7 -0.7 37 +12 +12 1022.6 984.2
06 20.06 СВ 4 н/о н/о +15.5 -0.3 34 +15 +15 1020.9 982.6
07 20.06 В 4 н/о н/о +15.7 -0.1 34 +15 +15 1020.8 982.5
09 20.06 В 4 н/о н/о +12.8 +0.2 42 +12 +12 1020.5 982.2
10 20.06 ЮВ 3 н/о н/о +10.7 -0.1 47 +9 +9 1020.5 982.2
12 20.06 В 5 н/о н/о +10.5 -0.3 47 +8 +8 1020.7 982.4
13 20.06 В 3 н/о н/о +9.2 -0.9 49 +7 +7 1021.3 982.9 +16.6
15 20.06 В 3 н/о н/о +8.1 -0.6 54 +6 +6 1020.4 982.1
16 20.06 В 3 н/о н/о +8.1 -0.9 53 +6 +6 1019.8 981.5
18 20.06 В 2 н/о н/о +9.0 -0.3 52 +8 +8 1018.5 980.2
19 20.06 В 3 н/о н/о +9.5 +0.1 52 +8 +8 1018.0 979.8
21 20.06 В 2 н/о н/о +9.8 +0.4 52 +9 +9 1017.3 979.1
22 20.06 СВ 3 н/о н/о +10.2 +0.3 50 +8 +8 1017.3 979.1
00 21.06 В 4 н/о н/о +10.2 +0.5 51 +8 +8 1017.3 979.1
01 21.06 СВ 4 н/о н/о +11.6 +0.4 46 +10 +10 1017.4 979.2 +1.6
03 21.06 СВ 4 н/о н/о +16.4 +0.5 34 +16 +16 1016.2 978.0
04 21.06 С 5 н/о н/о +18.7 +1.2 31 +18 +18 1015.3 977.2
06 21.06 С 3 н/о н/о +22.2 +2.8 28 +22 +22 комфорт 1013.5 975.4
07 21.06 С 4 н/о н/о +22.6 +3.2 28 +22 +22 комфорт 1013.1 975.0
09 21.06 С 3 н/о н/о +18.4 +3.1 36 +19 +19 1013.4 975.3
10 21.06 С 4 н/о н/о +16.6 +4.0 43 +16 +16 1013.9 975.8
12 21.06 СВ 2 н/о н/о +10.2 +3.3 62 +9 +9 1014.8 976.7
13 21.06 СВ 1 н/о н/о +7.7 +3.0 72 +8 +8 1015.0 976.9 +23.3
15 21.06 Ю 1 н/о н/о +5.7 +2.2 78 +5 +5 1014.4 976.3
16 21.06 штиль 0 н/о н/о +5.9 +2.4 78 +5 +5 1014.0 975.9
18 21.06 штиль 0 н/о н/о +5.1 +2.1 81 +4 +4 1013.9 975.8
19 21.06 В 1 н/о н/о +7.2 +4.0 80 +7 +7 1013.4 975.3
21 21.06 В 2 н/о н/о +8.1 +4.3 77 +7 +7 1013.1 975.0
22 21.06 В 1 н/о н/о +9.2 +5.4 77 +9 +9 1013.2 975.1
00 22.06 СВ 1 н/о н/о +11.1 +7.2 77 +11 +11 1013.5 975.4
01 22.06 С 4 н/о н/о +14.2 +8.2 67 +13 +13 1013.7 975.6 +3.8
03 22.06 С 7 н/о н/о +20.3 +8.3 46 +21 +21 комфорт 1012.7 974.7
04 22.06 С 9 н/о н/о +22.0 +8.9 43 +23 +23 комфорт 1011.2 973.2
06 22.06 С 9 н/о н/о +22.4 +8.1 40 +24 +24 комфорт 1009.6 971.7
07 22.06 С 9 н/о н/о +20.9 +8.2 44 +22 +22 комфорт 1009.9 972.0
09 22.06 С 5 н/о н/о +19.1 +9.0 52 +20 +20 1008.6 970.7
10 22.06 С 5 н/о н/о +18.6 +9.1 54 +19 +19 1009.4 971.5
12 22.06 С 4 н/о н/о +16.8 +9.7 63 +16 +16 1009.5 971.6
13 22.06 С 4 н/о н/о +16.0 +9.2 64 +15 +15 1008.7 970.8 +24.0
15 22.06 СЗ 4 н/о н/о +16.6 +9.8 64 +16 +16 1008.2 970.3
16 22.06 СЗ 4 н/о туман местами н/о +15.2 +10.8 75 +14 +14 1008.3 970.4
18 22.06 С 5 н/о н/о +14.3 +12.0 86 +13 +13 1008.1 970.2
19 22.06 СЗ 5 н/о в посл. час дождь {туман} н/о +14.8 +12.3 85 +13 +13 1008.1 970.2
21 22.06 ЮЗ 2 н/о н/о +11.9 +10.5 91 +11 +11 1007.9 970.0
22 22.06 СЗ 2 н/о туман местами н/о +12.2 +10.8 91 +11 +11 1008.7 970.8
00 23.06 СЗ 1 н/о н/о +11.7 +10.3 91 +11 +11 1009.1 971.2
01 23.06 СЗ 4 н/о {туман} н/о +12.6 +11.3 92 +11 +11 1010.1 972.2 +11.1
03 23.06 СЗ 4 н/о н/о +13.7 +12.1 90 +12 +12 1010.1 972.2
04 23.06 СЗ 4 н/о н/о +14.1 +12.3 89 +13 +13 1009.3 971.4
06 23.06 СЗ 4 н/о н/о +14.6 +13.1 91 +13 +13 1008.3 970.4
07 23.06 С 6 н/о в посл. час дождь {туман} н/о +14.9 +12.6 86 +13 +13 1008.1 970.2
09 23.06 СЗ 4 н/о н/о +14.3 +12.0 86 +13 +13 1008.4 970.5
10 23.06 СЗ 4 н/о {туман} н/о +13.3 +11.5 89 +12 +12 1009.2 971.3
12 23.06 СЗ 5 н/о н/о +12.5 +10.2 86 +10 +10 1010.4 972.4
13 23.06 СЗ 5 н/о {туман} н/о +11.9 +9.5 85 +10 +10 1010.8 972.8 +17.6
15 23.06 З 5 н/о н/о +10.9 +8.7 86 +8 +8 1012.2 974.2
16 23.06 СЗ 4 н/о {туман} н/о +10.5 +8.3 86 +8 +8 1012.8 974.8
18 23.06 З 4 н/о н/о +10.0 +7.3 83 +7 +7 1013.8 975.7
19 23.06 СЗ 4 н/о {туман} н/о +9.2 +7.0 86 +6 +6 1014.5 976.4
21 23.06 СЗ 4 н/о н/о +8.4 +6.4 87 +5 +5 1015.9 977.7
22 23.06 СЗ 4 н/о н/о +8.1 +6.4 89 +5 +5 1016.5 978.3
00 24.06 СЗ 4 н/о н/о +8.7 +6.7 87 +6 +6 1018.4 980.1
01 24.06 З 5 н/о в посл. час дождь {туман} н/о +10.9 +8.0 82 +8 +8 1019.1 980.8 +7.8
03 24.06 З 5 н/о н/о +13.7 +8.7 72 +12 +12 1019.9 981.6
04 24.06 З 6 н/о н/о +14.5 +7.1 61 +13 +13 1019.6 981.3
06 24.06 З 4 н/о н/о +14.8 +7.4 61 +14 +14 1019.5 981.2
07 24.06 СЗ 5 н/о н/о +15.5 +7.3 58 +14 +14 1020.1 981.8
09 24.06 З 2 н/о н/о +13.4 +7.2 66 +13 +13 1021.4 983.0
10 24.06 СЗ 1 н/о н/о +10.5 +6.8 78 +10 +10 1021.9 983.5
12 24.06 З 1 н/о н/о +10.1 +7.0 81 +10 +10 1022.9 984.5
13 24.06 штиль 0 н/о н/о +9.0 +6.4 84 +8 +8 1023.1 984.7 +16.2
15 24.06 штиль 0 н/о н/о +8.6 +6.9 89 +8 +8 1023.1 984.7
16 24.06 СЗ 2 н/о н/о +9.1 +7.2 88 +7 +7 1023.0 984.6
18 24.06 штиль 0 н/о н/о +7.3 +5.4 88 +6 +6 1022.9 984.5
19 24.06 штиль 0 н/о н/о +8.2 +6.7 90 +7 +7 1023.1 984.7
21 24.06 штиль 0 н/о н/о +8.7 +7.2 90 +8 +8 1022.8 984.4
22 24.06 штиль 0 н/о н/о +9.1 +7.5 90 +8 +8 1022.8 984.4
00 25.06 СЗ 1 н/о н/о +10.0 +8.1 88 +10 +10 1023.4 985.0
01 25.06 С 3 н/о н/о +11.9 +8.6 80 +11 +11 1023.5 985.1 +6.9
03 25.06 С 6 н/о н/о +14.7 +8.0 64 +13 +13 1023.0 984.6
04 25.06 С 7 н/о н/о +15.2 +7.3 59 +13 +13 1022.0 983.6
06 25.06 СЗ 7 н/о н/о +16.0 +6.2 52 +15 +15 1020.1 981.8
07 25.06 С 6 н/о н/о +15.6 +6.9 56 +14 +14 1019.3 981.0
09 25.06 С 4 н/о н/о +14.4 +7.7 64 +13 +13 1019.1 980.8
10 25.06 С 2 н/о н/о +13.2 +8.3 72 +13 +13 1018.9 980.6
12 25.06 С 2 н/о н/о +12.2 +7.9 75 +11 +11 1019.0 980.7
13 25.06 С 1 н/о н/о +9.7 +6.8 82 +9 +9 1018.8 980.5 +17.0
15 25.06 штиль 0 н/о н/о +7.1 +5.3 88 +6 +6 1017.4 979.2
16 25.06 штиль 0 н/о н/о +8.2 +6.8 91 +7 +7 1016.7 978.5
18 25.06 штиль 0 н/о н/о +7.8 +6.3 90 +7 +7 1014.8 976.7
19 25.06 СВ 1 н/о н/о +9.0 +7.3 89 +9 +9 1014.6 976.5
21 25.06 штиль 0 н/о н/о +6.8 +5.3 90 +6 +6 1013.3 975.2
22 25.06 С 4 н/о н/о +8.6 +6.6 87 +5 +5 1012.6 974.6
00 26.06 С 3 н/о н/о +8.5 +6.5 87 +6 +6 1012.2 974.2
01 26.06 С 6 н/о н/о +11.6 +8.1 79 +9 +9 1011.5 973.5 +5.7
03 26.06 С 10 н/о н/о +14.9 +9.1 68 +13 +13 1009.7 971.8
04 26.06 С 10 н/о н/о +14.8 +9.6 71 +12 +12 1008.7 970.8
06 26.06 С 11 н/о н/о +15.4 +10.0 70 +13 +13 1005.8 968.0
07 26.06 С 10 н/о н/о +15.8 +10.3 70 +14 +14 1005.6 967.8
09 26.06 С 9 н/о н/о +14.1 +11.6 85 +11 +11 1005.6 967.8
10 26.06 С 10 н/о {туман} н/о +13.8 +11.7 87 +11 +11 1005.4 967.6
12 26.06 С 7 н/о н/о +13.2 +11.9 92 +11 +11 1005.3 967.5
13 26.06 СЗ 7 н/о в посл. час дождь {туман} н/о +13.5 +11.9 90 +11 +11 1004.6 966.9 +16.7
15 26.06 З 3 н/о н/о +12.3 +11.0 92 +11 +11 1005.5 967.7
16 26.06 СЗ 4 н/о в посл. час дождь {туман} н/о +11.8 +10.0 89 +10 +10 1004.1 966.4
18 26.06 СЗ 6 н/о н/о +11.7 +9.9 89 +9 +9 1004.8 967.1
19 26.06 СЗ 6 н/о в посл. час дождь {туман} н/о +11.5 +9.6 88 +9 +9 1005.2 967.4
21 26.06 СЗ 5 н/о н/о +10.6 +8.4 86 +8 +8 1005.4 967.6
22 26.06 СЗ 6 н/о н/о +10.3 +7.9 85 +7 +7 1006.0 968.2

 

Местоположение метеостанции Ньюдегейт (Западная Австралия, Австралия): широта -33.12 долгота 118.83 высота над уровнем моря 321 м.

В архиве по умолчанию представлена погода в Ньюдегейте за последнюю неделю. Архивные данные за месяц целиком и за предыдущие месяцы, начиная с января 2011 года, Вы можете получить, выбрав интересующий диапазон дат из раскрывающегося списка и нажав кнопку "Ввод!".


*Определитесь, кто Вы:
робот инопланетянин человек

Внимание! Время в таблицах - всемирное. Для получения местного времени необходимо прибавить поправку, которая равна 8 ч.

Смотрите также архив погоды в соседних городах и на ближайших метеорологических станциях:

Погода на Озере Грейс (Западная Австралия, Австралия) (35 км)
Погода в Джакапе (Западная Австралия, Австралия) (88 км)
Погода в Катаннинге (Западная Австралия, Австралия) (130 км)
Погода в Хоптауне (Западная Австралия, Австралия) (150 км)
Погода в Мунглинап Запад (Западная Австралия, Австралия) (180 км)
Погода в Уондеринге (Западная Австралия, Австралия) (208 км)
Погода в Саутерн Кросс (Западная Австралия, Австралия) (216 км)
Погода в Олбани (Западная Австралия, Австралия) (223 км)
Погода в Кандердине (Западная Австралия, Австралия) (225 км)
Погода в Роки Галли (Западная Австралия, Австралия) (232 км)

Пояснения к столбцам:

Ветер - указаны скорость ветра в м/с - средняя за 10 мин, порывы в срок и между сроками (в фигурных скобках) и направление, откуда дует ветер: С - северный, СВ - северо-восточный, В - восточный, ЮВ - юго-восточный, Ю - южный, ЮЗ - юго-западный, З - западный, СЗ - северо-западный.
Видимость - горизонтальная дальность видимости в метрах или километрах. При видимости от 1 до 10 км при отсутствии осадков обычно наблюдается дымка, при ухудшении видимости до 1 км и менее - туман. В сухую погоду видимость может ухудшаться дымом, пылью или мглою.
Явления - указаны атмосферные явления, наблюдавшиеся в срок или в последний час перед сроком; фигурными скобками обозначены явления, наблюдавшиеся между сроками (за 1-3 часа до срока); квадратными скобками обозначены град или гололедные отложения с указанием их диаметра в мм.
Облачность - указаны через наклонную черту общая и нижняя облачность в баллах и высота нижней границы облаков в метрах; квадратными скобками обозначены формы облаков: Ci - перистые, Cs - перисто-слоистые, Cc - перисто-кучевые, Ac - высококучевые, As - высокослоистые, Sc - слоисто-кучевые, Ns - слоисто-дождевые, Cu - кучевые, Cb - кучево-дождевые. Подробнее классификацию облаков см. в Атласе облаков (PDF).
T - Температура воздуха - температура, измеренная на высоте 2 м над землей.
Td - Температура точки росы - температура, при понижении до которой содержащийся в воздухе водяной пар достигнет насыщения.
f - Относительная влажность воздуха - влажноcть воздуха, измеренная на высоте 2 м над землей.
Te - Эффективная температура - температура, которую ощущает одетый по сезону человек в тени. Характеристика душности погоды. При расчете учитывается влияние влажности воздуха и скорости ветра на теплоощущения человека.
Tes - Эффективная температура на солнце - температура, которую ощущает человек, с поправкой на солнечный нагрев. Характеристика знойности погоды. Зависит от высоты солнца над горизонтом, облачности и скорости ветра. Ночью, в пасмурную погоду, а также при ветре 12 м/с и более поправка равна нулю.
P - Атмосферное давление - приведенное к уровню моря атмосферное давление.
Po - Атмосферное давление - измеренное на уровне метеостанции атмосферное давление.
Tmin - Минимальная температура - минимум температуры воздуха на высоте 2 м над землей.
Tmax - Максимальная температура - максимум температуры воздуха на высоте 2 м над землей.
R - Количество осадков - Количество выпавших осадков за период времени, мм. При наведении курсора мыши на число - период времени, за который выпало указанное количество осадков.
R24 - Количество осадков - Количество выпавших осадков за 24 часа, мм.
S - Снежный покров - Высота снежного покрова, см. При наведении курсора мыши на число - состояние снежного покрова и степень покрытия местности в баллах.